NAVSTAR 65 (USA 213)    
1 36585U 10022A   19258.54116399 -.00000028  00000-0  00000+0 0  9995
2 36585  55.5141 307.9701 0082150  50.4556 347.3631  2.00565363 68111
DELTA 4 R/B             
1 36586U 10022B   19257.57509450 -.00000049  00000-0  00000+0 0  9995
2 36586  55.4854 320.8736 0238894 101.8157 296.3279  1.90939675 64857